RYR8EM ESGG-LDZA

Flight info

Callsign RYR8EM
Flight time 1h 55m
Altitude 37000
Route TOPLA DCT INRER DCT SALLO DCT USEDU DCT LUROS DCT KOBUS M725 HDO DCT PISAM DCT PETOV
Aircraft A320/M-SDE3FGHIRWY/LB1

Departure

Time 2026-05-05 20:02
Airport Göteborg Landvetter Airport (ESGG)

Arrival

Time 2026-05-05 21:57
Airport Zagreb Franjo Tuđman International Airport (LDZA)
Time Latitude Longitude Altitude Speed Heading
2026-05-05 19:42 57.67005 12.29533 516 ft 0 kts 116°
2026-05-05 19:52 57.67006 12.29529 516 ft 1 kts 116°
2026-05-05 19:52 57.67010 12.29514 516 ft 1 kts 116°
2026-05-05 19:53 57.67014 12.29499 516 ft 1 kts 116°
2026-05-05 19:53 57.67020 12.29477 516 ft 3 kts 116°
2026-05-05 19:53 57.67028 12.29445 516 ft 3 kts 122°
2026-05-05 19:53 57.67039 12.29423 516 ft 2 kts 161°
2026-05-05 19:54 57.67053 12.29419 516 ft 0 kts 206°
2026-05-05 19:54 57.67053 12.29418 516 ft 0 kts 206°
2026-05-05 19:56 57.67042 12.29409 516 ft 3 kts 205°
2026-05-05 19:56 57.66989 12.29351 516 ft 14 kts 228°
2026-05-05 19:56 57.67027 12.29202 516 ft 15 kts 341°
2026-05-05 19:57 57.67128 12.29263 516 ft 17 kts 26°
2026-05-05 19:57 57.67240 12.29364 516 ft 19 kts 26°
2026-05-05 19:57 57.67365 12.29477 516 ft 16 kts 23°
2026-05-05 19:57 57.67431 12.29396 515 ft 7 kts 296°
2026-05-05 19:58 57.67445 12.29343 515 ft 1 kts 296°
2026-05-05 19:58 57.67448 12.29332 515 ft 2 kts 296°
2026-05-05 20:00 57.67450 12.29325 515 ft 4 kts 296°
2026-05-05 20:00 57.67459 12.29168 514 ft 15 kts 270°
2026-05-05 20:00 57.67440 12.29033 515 ft 8 kts 210°
2026-05-05 20:00 57.67436 12.29030 515 ft 1 kts 207°
2026-05-05 20:01 57.67305 12.28909 515 ft 55 kts 206°
2026-05-05 20:01 57.66768 12.28422 513 ft 114 kts 206°
2026-05-05 20:01 57.65904 12.27635 516 ft 159 kts 208°
2026-05-05 20:01 57.64884 12.26693 953 ft 165 kts 208°
2026-05-05 20:02 57.63845 12.25733 1588 ft 168 kts 207°
2026-05-05 20:02 57.62786 12.24775 2196 ft 170 kts 207°
2026-05-05 20:02 57.61707 12.23804 2785 ft 175 kts 206°
2026-05-05 20:02 57.60498 12.23268 3323 ft 185 kts 185°
2026-05-05 20:03 57.59174 12.23099 3861 ft 196 kts 186°
2026-05-05 20:03 57.57774 12.22904 4397 ft 208 kts 186°
2026-05-05 20:03 57.56274 12.22691 4920 ft 225 kts 186°
2026-05-05 20:03 57.54655 12.22813 5456 ft 242 kts 173°
2026-05-05 20:04 57.52935 12.23287 5990 ft 259 kts 174°
2026-05-05 20:04 57.51102 12.23795 6531 ft 271 kts 174°
2026-05-05 20:04 57.49223 12.24314 7037 ft 274 kts 174°
2026-05-05 20:04 57.47564 12.24770 7482 ft 277 kts 175°
2026-05-05 20:05 57.45651 12.25295 8010 ft 279 kts 175°
2026-05-05 20:05 57.43721 12.25818 8524 ft 282 kts 175°
2026-05-05 20:05 57.41777 12.26343 9071 ft 284 kts 176°
2026-05-05 20:05 57.39809 12.26873 9617 ft 287 kts 176°
2026-05-05 20:06 57.37824 12.27406 10131 ft 292 kts 176°
2026-05-05 20:06 57.35774 12.27948 10649 ft 303 kts 177°
2026-05-05 20:06 57.33655 12.28506 11257 ft 311 kts 177°
2026-05-05 20:06 57.31493 12.29083 11882 ft 317 kts 178°
2026-05-05 20:07 57.29284 12.29680 12512 ft 324 kts 178°
2026-05-05 20:07 57.27038 12.30285 13160 ft 329 kts 178°
2026-05-05 20:07 57.24755 12.30894 13814 ft 334 kts 179°
2026-05-05 20:07 57.22443 12.31510 14392 ft 338 kts 179°
2026-05-05 20:08 57.20090 12.32137 14829 ft 346 kts 179°
2026-05-05 20:08 57.17695 12.32778 14939 ft 349 kts 178°
2026-05-05 20:08 57.15293 12.33422 14964 ft 349 kts 178°
2026-05-05 20:08 57.12893 12.34183 14964 ft 353 kts 173°
2026-05-05 20:09 57.10503 12.35268 14966 ft 353 kts 173°
2026-05-05 20:09 57.08130 12.36343 15324 ft 351 kts 173°
2026-05-05 20:09 57.05776 12.37401 15943 ft 354 kts 173°
2026-05-05 20:09 57.03348 12.38488 16599 ft 355 kts 173°
2026-05-05 20:10 57.00974 12.39553 17250 ft 357 kts 173°
2026-05-05 20:10 56.98522 12.40653 17933 ft 358 kts 173°
2026-05-05 20:10 56.96101 12.41738 18569 ft 359 kts 173°
2026-05-05 20:10 56.93703 12.42813 19157 ft 360 kts 174°
2026-05-05 20:11 56.91263 12.43901 19767 ft 361 kts 174°
2026-05-05 20:11 56.88818 12.44989 20393 ft 361 kts 174°
2026-05-05 20:11 56.86379 12.46077 21024 ft 361 kts 174°
2026-05-05 20:11 56.83950 12.47162 21673 ft 359 kts 174°
2026-05-05 20:12 56.81519 12.48242 22234 ft 360 kts 174°
2026-05-05 20:12 56.79083 12.49319 22777 ft 361 kts 174°
2026-05-05 20:12 56.76632 12.50400 23327 ft 363 kts 174°
2026-05-05 20:12 56.74178 12.51482 23822 ft 364 kts 174°
2026-05-05 20:13 56.71715 12.52566 24294 ft 365 kts 174°
2026-05-05 20:13 56.69242 12.53651 24772 ft 365 kts 174°
2026-05-05 20:13 56.66773 12.54735 25256 ft 366 kts 174°
2026-05-05 20:13 56.64300 12.55822 25746 ft 366 kts 174°
2026-05-05 20:14 56.61827 12.56913 26246 ft 365 kts 175°
2026-05-05 20:14 56.59365 12.58003 26756 ft 364 kts 175°
2026-05-05 20:14 56.56906 12.59087 27283 ft 363 kts 175°
2026-05-05 20:14 56.54459 12.60161 27799 ft 361 kts 175°
2026-05-05 20:15 56.52024 12.61226 28342 ft 359 kts 175°
2026-05-05 20:15 56.49587 12.62284 28723 ft 362 kts 175°
2026-05-05 20:15 56.47133 12.63342 29085 ft 364 kts 175°
2026-05-05 20:15 56.44659 12.64410 29452 ft 367 kts 175°
2026-05-05 20:16 56.42162 12.65495 29825 ft 371 kts 174°
2026-05-05 20:16 56.39642 12.66590 30180 ft 374 kts 174°
2026-05-05 20:16 56.37143 12.67673 30485 ft 376 kts 174°
2026-05-05 20:16 56.34585 12.68783 30809 ft 379 kts 174°
2026-05-05 20:17 56.32014 12.69896 31134 ft 381 kts 174°
2026-05-05 20:17 56.29428 12.71011 31461 ft 383 kts 174°
2026-05-05 20:17 56.26825 12.72132 31786 ft 385 kts 174°
2026-05-05 20:17 56.24212 12.73261 32128 ft 387 kts 173°
2026-05-05 20:18 56.21594 12.74392 32469 ft 388 kts 173°
2026-05-05 20:18 56.18965 12.75521 32813 ft 389 kts 173°
2026-05-05 20:18 56.16337 12.76647 33152 ft 389 kts 173°
2026-05-05 20:18 56.13702 12.77775 33509 ft 389 kts 173°
2026-05-05 20:19 56.11069 12.78901 33815 ft 390 kts 173°
2026-05-05 20:19 56.08427 12.80027 34091 ft 390 kts 173°
2026-05-05 20:19 56.05787 12.81146 34333 ft 391 kts 173°
2026-05-05 20:19 56.03144 12.82328 34585 ft 393 kts 171°
2026-05-05 20:20 56.00508 12.83647 34825 ft 394 kts 170°
2026-05-05 20:20 55.97874 12.85050 35065 ft 395 kts 169°
2026-05-05 20:20 55.95237 12.86478 35303 ft 396 kts 169°
2026-05-05 20:20 55.92598 12.87895 35553 ft 396 kts 170°
2026-05-05 20:21 55.89956 12.89288 35799 ft 396 kts 170°
2026-05-05 20:21 55.87308 12.90664 36010 ft 397 kts 170°
2026-05-05 20:21 55.84653 12.92026 36229 ft 398 kts 171°
2026-05-05 20:21 55.81989 12.93383 36426 ft 399 kts 171°
2026-05-05 20:22 55.79346 12.94731 36589 ft 401 kts 171°
2026-05-05 20:22 55.76657 12.96101 36734 ft 403 kts 171°
2026-05-05 20:22 55.73996 12.97457 36902 ft 404 kts 171°
2026-05-05 20:23 55.68486 13.00263 36940 ft 415 kts 170°
2026-05-05 20:23 55.62847 13.02998 36939 ft 423 kts 174°
2026-05-05 20:24 55.57015 13.04970 36929 ft 430 kts 176°
2026-05-05 20:24 55.51108 13.06767 36923 ft 431 kts 176°
2026-05-05 20:25 55.45240 13.08561 36920 ft 431 kts 176°
2026-05-05 20:25 55.39339 13.10416 36925 ft 431 kts 176°
2026-05-05 20:26 55.33427 13.12284 36922 ft 431 kts 176°
2026-05-05 20:26 55.27523 13.14148 36923 ft 431 kts 176°
2026-05-05 20:27 55.21617 13.15991 36935 ft 431 kts 177°
2026-05-05 20:27 55.16714 13.17489 36945 ft 431 kts 176°
2026-05-05 20:28 55.10810 13.19335 36942 ft 430 kts 176°
2026-05-05 20:28 55.04913 13.21173 36936 ft 430 kts 176°
2026-05-05 20:29 54.99032 13.23005 36934 ft 429 kts 176°
2026-05-05 20:29 54.93142 13.24766 36932 ft 429 kts 177°
2026-05-05 20:30 54.87274 13.26562 36932 ft 428 kts 176°
2026-05-05 20:30 54.81411 13.28388 36932 ft 428 kts 176°
2026-05-05 20:31 54.75560 13.30192 36933 ft 427 kts 176°
2026-05-05 20:31 54.69719 13.32045 36934 ft 426 kts 176°
2026-05-05 20:32 54.63884 13.33803 36927 ft 425 kts 177°
2026-05-05 20:32 54.58058 13.35528 36920 ft 425 kts 176°
2026-05-05 20:33 54.52231 13.37274 36934 ft 425 kts 176°
2026-05-05 20:33 54.46418 13.39030 36927 ft 424 kts 176°
2026-05-05 20:34 54.40600 13.40779 36927 ft 424 kts 176°
2026-05-05 20:34 54.34786 13.42521 36932 ft 424 kts 176°
2026-05-05 20:35 54.28977 13.44261 36927 ft 424 kts 176°
2026-05-05 20:35 54.23165 13.45988 36921 ft 424 kts 176°
2026-05-05 20:36 54.17353 13.47705 36917 ft 424 kts 176°
2026-05-05 20:36 54.11542 13.49422 36913 ft 424 kts 176°
2026-05-05 20:37 54.05717 13.51147 36912 ft 424 kts 176°
2026-05-05 20:37 53.99901 13.52863 36909 ft 424 kts 176°
2026-05-05 20:38 53.94079 13.54569 36902 ft 424 kts 176°
2026-05-05 20:38 53.88258 13.56269 36903 ft 425 kts 175°
2026-05-05 20:39 53.82431 13.57968 36905 ft 425 kts 175°
2026-05-05 20:39 53.76641 13.59644 36908 ft 425 kts 175°
2026-05-05 20:40 53.70809 13.61342 36903 ft 426 kts 175°
2026-05-05 20:40 53.64970 13.63035 36904 ft 426 kts 175°
2026-05-05 20:41 53.59121 13.64724 36901 ft 426 kts 175°
2026-05-05 20:41 53.53273 13.66406 36901 ft 426 kts 175°
2026-05-05 20:42 53.47420 13.68086 36897 ft 426 kts 175°
2026-05-05 20:42 53.41572 13.69750 36898 ft 426 kts 175°
2026-05-05 20:43 53.35729 13.71420 36895 ft 426 kts 175°
2026-05-05 20:43 53.29882 13.73086 36896 ft 426 kts 175°
2026-05-05 20:44 53.24041 13.74749 36891 ft 426 kts 175°
2026-05-05 20:44 53.18208 13.76391 36888 ft 425 kts 175°
2026-05-05 20:45 53.09453 13.78851 36879 ft 425 kts 175°
2026-05-05 20:45 53.03624 13.80486 36880 ft 425 kts 175°
2026-05-05 20:46 52.97835 13.82122 36877 ft 425 kts 175°
2026-05-05 20:46 52.92016 13.83748 36875 ft 424 kts 175°
2026-05-05 20:47 52.86196 13.85363 36871 ft 424 kts 175°
2026-05-05 20:47 52.80375 13.86985 36867 ft 424 kts 175°
2026-05-05 20:48 52.74556 13.88602 36868 ft 424 kts 175°
2026-05-05 20:48 52.68744 13.90203 36861 ft 423 kts 175°
2026-05-05 20:49 52.62936 13.91807 36861 ft 423 kts 175°
2026-05-05 20:49 52.57128 13.93406 36856 ft 423 kts 175°
2026-05-05 20:50 52.51335 13.94990 36854 ft 422 kts 175°
2026-05-05 20:50 52.45543 13.96577 36859 ft 422 kts 175°
2026-05-05 20:51 52.39757 13.98160 36852 ft 421 kts 175°
2026-05-05 20:51 52.33975 13.99724 36844 ft 421 kts 175°
2026-05-05 20:52 52.28204 14.01290 36847 ft 420 kts 175°
2026-05-05 20:52 52.22435 14.02850 36845 ft 420 kts 175°
2026-05-05 20:53 52.16670 14.04405 36842 ft 420 kts 175°
2026-05-05 20:53 52.10909 14.05954 36834 ft 419 kts 175°
2026-05-05 20:54 52.05149 14.07499 36830 ft 419 kts 174°
2026-05-05 20:54 51.99434 14.09030 36822 ft 419 kts 174°
2026-05-05 20:55 51.93682 14.10567 36825 ft 419 kts 174°
2026-05-05 20:55 51.87934 14.12106 36820 ft 419 kts 174°
2026-05-05 20:56 51.82185 14.13642 36817 ft 419 kts 174°
2026-05-05 20:56 51.76433 14.15164 36816 ft 419 kts 174°
2026-05-05 20:57 51.70684 14.16675 36811 ft 418 kts 174°
2026-05-05 20:57 51.64940 14.18183 36813 ft 418 kts 174°
2026-05-05 20:58 51.59196 14.19679 36809 ft 418 kts 174°
2026-05-05 20:58 51.53456 14.21193 36810 ft 418 kts 174°
2026-05-05 20:59 51.47711 14.22703 36807 ft 418 kts 174°
2026-05-05 20:59 51.41978 14.24187 36806 ft 417 kts 174°
2026-05-05 21:00 51.36245 14.25679 36801 ft 417 kts 174°
2026-05-05 21:00 51.30512 14.27182 36798 ft 417 kts 174°
2026-05-05 21:01 51.24817 14.28658 36795 ft 417 kts 175°
2026-05-05 21:01 51.19088 14.30132 36797 ft 417 kts 174°
2026-05-05 21:02 51.13362 14.31610 36799 ft 417 kts 174°
2026-05-05 21:02 51.07630 14.33079 36796 ft 417 kts 174°
2026-05-05 21:03 51.01905 14.34550 36788 ft 417 kts 174°
2026-05-05 21:03 50.96186 14.36018 36790 ft 416 kts 174°
2026-05-05 21:04 50.90530 14.38056 36787 ft 420 kts 165°
2026-05-05 21:04 50.84982 14.40963 36782 ft 420 kts 165°
2026-05-05 21:05 50.79434 14.43874 36778 ft 420 kts 165°
2026-05-05 21:05 50.73890 14.46756 36774 ft 419 kts 165°
2026-05-05 21:06 50.68344 14.49620 36771 ft 419 kts 166°
2026-05-05 21:06 50.62800 14.52471 36767 ft 419 kts 166°
2026-05-05 21:07 50.57260 14.55320 36760 ft 419 kts 166°
2026-05-05 21:07 50.51715 14.58171 36766 ft 419 kts 165°
2026-05-05 21:08 50.46175 14.61021 36760 ft 419 kts 166°
2026-05-05 21:08 50.40635 14.63858 36770 ft 419 kts 166°
2026-05-05 21:09 50.35121 14.66674 36785 ft 419 kts 166°
2026-05-05 21:09 50.29532 14.69523 36791 ft 420 kts 166°
2026-05-05 21:10 50.24020 14.72330 36796 ft 420 kts 166°
2026-05-05 21:10 50.18461 14.75142 36798 ft 420 kts 166°
2026-05-05 21:11 50.12899 14.77947 36795 ft 420 kts 166°
2026-05-05 21:11 50.07333 14.80757 36792 ft 421 kts 166°
2026-05-05 21:12 50.01759 14.83563 36785 ft 421 kts 166°
2026-05-05 21:12 49.96187 14.86348 36778 ft 421 kts 166°
2026-05-05 21:13 49.90605 14.89136 36770 ft 421 kts 166°
2026-05-05 21:13 49.85026 14.91925 36763 ft 421 kts 166°
2026-05-05 21:14 49.79439 14.94720 36764 ft 422 kts 166°
2026-05-05 21:14 49.73855 14.97504 36767 ft 422 kts 166°
2026-05-05 21:15 49.68259 15.00271 36767 ft 422 kts 166°
2026-05-05 21:15 49.62662 15.03024 36767 ft 423 kts 166°
2026-05-05 21:16 49.57096 15.05769 36766 ft 423 kts 166°
2026-05-05 21:16 49.51491 15.08528 36768 ft 423 kts 166°
2026-05-05 21:17 49.45874 15.11285 36764 ft 424 kts 166°
2026-05-05 21:17 49.40258 15.14048 36764 ft 424 kts 166°
2026-05-05 21:18 49.35582 15.16332 36766 ft 424 kts 166°
2026-05-05 21:18 49.29950 15.19078 36768 ft 425 kts 166°
2026-05-05 21:19 49.24315 15.21830 36766 ft 425 kts 166°
2026-05-05 21:19 49.18669 15.24564 36767 ft 426 kts 166°
2026-05-05 21:20 49.13023 15.27293 36770 ft 426 kts 166°
2026-05-05 21:20 49.07370 15.30017 36768 ft 426 kts 166°
2026-05-05 21:21 49.01717 15.32745 36768 ft 427 kts 166°
2026-05-05 21:21 48.96055 15.35472 36771 ft 427 kts 166°
2026-05-05 21:22 48.90387 15.38178 36773 ft 427 kts 167°
2026-05-05 21:22 48.84592 15.39833 36773 ft 423 kts 174°
2026-05-05 21:23 48.78773 15.41215 36774 ft 423 kts 174°
2026-05-05 21:23 48.72951 15.42603 36775 ft 424 kts 174°
2026-05-05 21:24 48.67131 15.43993 36774 ft 424 kts 174°
2026-05-05 21:24 48.61341 15.45374 36772 ft 424 kts 174°
2026-05-05 21:25 48.55508 15.46753 36770 ft 424 kts 174°
2026-05-05 21:25 48.49677 15.48138 36773 ft 424 kts 174°
2026-05-05 21:26 48.43843 15.49515 36772 ft 424 kts 174°
2026-05-05 21:26 48.38007 15.50880 36777 ft 424 kts 174°
2026-05-05 21:27 48.32168 15.52251 36776 ft 425 kts 174°
2026-05-05 21:27 48.26331 15.53619 36782 ft 425 kts 174°
2026-05-05 21:28 48.20497 15.54980 36791 ft 425 kts 174°
2026-05-05 21:28 48.14657 15.56334 36793 ft 425 kts 174°
2026-05-05 21:29 48.08815 15.57696 36791 ft 425 kts 174°
2026-05-05 21:29 48.02973 15.59051 36798 ft 425 kts 174°
2026-05-05 21:30 47.97123 15.60400 36810 ft 425 kts 174°
2026-05-05 21:30 47.91271 15.61760 36826 ft 426 kts 174°
2026-05-05 21:31 47.85423 15.63115 36830 ft 426 kts 174°
2026-05-05 21:31 47.79567 15.64465 36843 ft 426 kts 174°
2026-05-05 21:32 47.76629 15.65139 36541 ft 430 kts 174°
2026-05-05 21:32 47.73644 15.65817 36074 ft 437 kts 174°
2026-05-05 21:32 47.70633 15.66498 35620 ft 436 kts 174°
2026-05-05 21:32 47.67679 15.67169 35206 ft 434 kts 174°
2026-05-05 21:33 47.64700 15.67850 34786 ft 432 kts 174°
2026-05-05 21:33 47.61744 15.68528 34379 ft 429 kts 174°
2026-05-05 21:33 47.58802 15.69203 33972 ft 426 kts 174°
2026-05-05 21:33 47.55875 15.69875 33532 ft 427 kts 174°
2026-05-05 21:34 47.52918 15.70549 33063 ft 431 kts 174°
2026-05-05 21:34 47.49956 15.71221 32607 ft 431 kts 174°
2026-05-05 21:34 47.46994 15.71889 32163 ft 433 kts 174°
2026-05-05 21:34 47.44000 15.72560 31721 ft 437 kts 174°
2026-05-05 21:35 47.40994 15.73237 31290 ft 437 kts 174°
2026-05-05 21:35 47.37996 15.73918 30870 ft 435 kts 174°
2026-05-05 21:35 47.35012 15.74596 30450 ft 432 kts 174°
2026-05-05 21:35 47.32052 15.75266 30038 ft 429 kts 174°
2026-05-05 21:36 47.29106 15.75929 29575 ft 427 kts 174°
2026-05-05 21:36 47.26185 15.76585 29095 ft 423 kts 174°
2026-05-05 21:36 47.23283 15.77240 28624 ft 420 kts 174°
2026-05-05 21:36 47.20404 15.77889 28157 ft 418 kts 174°
2026-05-05 21:37 47.17540 15.78529 27706 ft 415 kts 174°
2026-05-05 21:37 47.14694 15.79166 27264 ft 412 kts 174°
2026-05-05 21:37 47.11868 15.79798 26826 ft 410 kts 174°
2026-05-05 21:37 47.09061 15.80423 26390 ft 407 kts 174°
2026-05-05 21:38 47.06268 15.81042 25963 ft 405 kts 174°
2026-05-05 21:38 47.03486 15.81661 25543 ft 403 kts 174°
2026-05-05 21:38 47.00724 15.82278 25130 ft 400 kts 174°
2026-05-05 21:38 46.97981 15.82893 24723 ft 398 kts 174°
2026-05-05 21:39 46.95248 15.83503 24316 ft 396 kts 174°
2026-05-05 21:39 46.92530 15.84110 23927 ft 394 kts 174°
2026-05-05 21:39 46.89828 15.84709 23538 ft 392 kts 174°
2026-05-05 21:39 46.87140 15.85303 23092 ft 390 kts 174°
2026-05-05 21:40 46.84462 15.85895 22626 ft 388 kts 174°
2026-05-05 21:40 46.81804 15.86482 22159 ft 386 kts 174°
2026-05-05 21:40 46.79153 15.87067 21695 ft 384 kts 174°
2026-05-05 21:40 46.76524 15.87648 21230 ft 381 kts 174°
2026-05-05 21:41 46.73910 15.88222 20776 ft 378 kts 174°
2026-05-05 21:41 46.71316 15.88791 20320 ft 376 kts 174°
2026-05-05 21:41 46.68740 15.89357 19887 ft 373 kts 174°
2026-05-05 21:41 46.66178 15.89921 19451 ft 371 kts 174°
2026-05-05 21:42 46.63632 15.90483 19021 ft 369 kts 174°
2026-05-05 21:42 46.61105 15.91040 18599 ft 366 kts 174°
2026-05-05 21:42 46.58594 15.91591 18179 ft 364 kts 174°
2026-05-05 21:42 46.56100 15.92138 17695 ft 361 kts 174°
2026-05-05 21:43 46.53620 15.92681 17218 ft 359 kts 174°
2026-05-05 21:43 46.51161 15.93218 16753 ft 356 kts 174°
2026-05-05 21:43 46.48725 15.93751 16292 ft 353 kts 174°
2026-05-05 21:43 46.46308 15.94279 15837 ft 350 kts 174°
2026-05-05 21:44 46.43907 15.94803 15394 ft 347 kts 174°
2026-05-05 21:44 46.41524 15.95320 14953 ft 345 kts 174°
2026-05-05 21:44 46.39156 15.95833 14515 ft 343 kts 174°
2026-05-05 21:44 46.36804 15.96341 14094 ft 341 kts 174°
2026-05-05 21:45 46.34466 15.96845 13667 ft 339 kts 174°
2026-05-05 21:45 46.32157 15.97464 13189 ft 339 kts 166°
2026-05-05 21:45 46.30004 15.98867 12724 ft 342 kts 150°
2026-05-05 21:45 46.28127 16.00983 12276 ft 342 kts 143°
2026-05-05 21:46 46.26311 16.03162 11877 ft 338 kts 143°
2026-05-05 21:46 46.24506 16.05322 11483 ft 336 kts 143°
2026-05-05 21:46 46.22729 16.07442 11095 ft 329 kts 143°
2026-05-05 21:46 46.20968 16.09537 10692 ft 327 kts 144°
2026-05-05 21:47 46.19217 16.11614 10312 ft 325 kts 145°
2026-05-05 21:47 46.17476 16.13675 9929 ft 322 kts 144°
2026-05-05 21:47 46.15755 16.15713 9512 ft 315 kts 144°
2026-05-05 21:47 46.14089 16.17688 9139 ft 306 kts 145°
2026-05-05 21:48 46.12467 16.19615 8775 ft 298 kts 145°
2026-05-05 21:48 46.10884 16.21493 8408 ft 292 kts 146°
2026-05-05 21:48 46.09315 16.23348 8070 ft 291 kts 146°
2026-05-05 21:48 46.07746 16.25199 7748 ft 291 kts 146°
2026-05-05 21:49 46.06180 16.27041 7428 ft 291 kts 146°
2026-05-05 21:49 46.04617 16.28878 7104 ft 290 kts 146°
2026-05-05 21:49 46.03053 16.30714 6794 ft 290 kts 147°
2026-05-05 21:49 46.01507 16.32582 6475 ft 290 kts 144°
2026-05-05 21:50 46.00005 16.34542 6149 ft 291 kts 142°
2026-05-05 21:50 45.98534 16.36529 5806 ft 285 kts 143°
2026-05-05 21:50 45.96928 16.37927 5470 ft 258 kts 172°
2026-05-05 21:50 45.95254 16.37940 5254 ft 230 kts 202°
2026-05-05 21:51 45.93915 16.36869 5125 ft 214 kts 228°
2026-05-05 21:51 45.92902 16.35331 5035 ft 212 kts 231°
2026-05-05 21:51 45.91897 16.33784 4927 ft 211 kts 231°
2026-05-05 21:51 45.90916 16.32276 4818 ft 202 kts 231°
2026-05-05 21:52 45.89052 16.29418 4399 ft 196 kts 231°
2026-05-05 21:52 45.88151 16.28040 4138 ft 189 kts 230°
2026-05-05 21:52 45.87264 16.26685 3872 ft 182 kts 231°
2026-05-05 21:53 45.86425 16.25406 3665 ft 172 kts 231°
2026-05-05 21:53 45.85610 16.24156 3414 ft 172 kts 231°
2026-05-05 21:53 45.84803 16.22914 3157 ft 168 kts 230°
2026-05-05 21:53 45.84018 16.21714 2936 ft 163 kts 231°
2026-05-05 21:54 45.83241 16.20525 2714 ft 164 kts 230°
2026-05-05 21:54 45.82464 16.19336 2495 ft 162 kts 229°
2026-05-05 21:54 45.81714 16.18194 2282 ft 152 kts 228°
2026-05-05 21:54 45.81007 16.17119 2062 ft 145 kts 229°
2026-05-05 21:55 45.80322 16.16074 1879 ft 140 kts 228°
2026-05-05 21:55 45.79686 16.15107 1704 ft 129 kts 228°
2026-05-05 21:55 45.79083 16.14191 1500 ft 124 kts 229°
2026-05-05 21:55 45.78487 16.13281 1333 ft 127 kts 227°
2026-05-05 21:56 45.77879 16.12352 1153 ft 129 kts 227°
2026-05-05 21:56 45.77259 16.11404 985 ft 131 kts 227°
2026-05-05 21:56 45.76641 16.10457 842 ft 129 kts 226°
2026-05-05 21:56 45.76025 16.09509 650 ft 131 kts 226°
2026-05-05 21:57 45.75403 16.08558 450 ft 130 kts 226°
2026-05-05 21:57 45.74790 16.07635 361 ft 118 kts 227°
2026-05-05 21:57 45.74496 16.07184 366 ft 34 kts 227°
2026-05-05 21:57 45.74340 16.06948 364 ft 32 kts 227°
2026-05-05 21:58 45.74189 16.06720 360 ft 32 kts 226°
2026-05-05 21:58 45.74039 16.06496 363 ft 31 kts 226°
2026-05-05 21:58 45.73901 16.06285 367 ft 24 kts 227°
2026-05-05 21:58 45.73834 16.06276 364 ft 8 kts 142°
2026-05-05 21:59 45.73778 16.06345 361 ft 13 kts 138°
2026-05-05 21:59 45.73761 16.06465 363 ft 15 kts 48°
2026-05-05 21:59 45.73840 16.06586 363 ft 19 kts 47°
2026-05-05 21:59 45.73937 16.06736 360 ft 21 kts 46°
2026-05-05 22:00 45.74040 16.06890 362 ft 22 kts 47°
2026-05-05 22:00 45.74146 16.07051 360 ft 22 kts 46°
2026-05-05 22:00 45.74210 16.07198 362 ft 11 kts 120°
2026-05-05 22:00 45.74138 16.07298 358 ft 19 kts 136°
2026-05-05 22:01 45.74055 16.07438 363 ft 16 kts 99°
2026-05-05 22:01 45.74094 16.07524 360 ft 10 kts 47°
2026-05-05 22:01 45.74141 16.07595 362 ft 10 kts 46°
2026-05-05 22:01 45.74174 16.07675 363 ft 9 kts 106°
2026-05-05 22:02 45.74137 16.07733 360 ft 4 kts 135°
2026-05-05 22:02 45.74126 16.07749 362 ft 1 kts 134°
2026-05-05 22:02 45.74118 16.07760 363 ft 2 kts 134°
2026-05-05 22:02 45.74117 16.07762 363 ft 0 kts 134°